DW1304 Shelton CT US current weather conditions

sailwx.info

Wind from 062

Air temperature 16.7° C
Dewpoint 15.7° C

Last reported at 2019-Sep-16 14:00 UTC.
Time now 2019-Sep-16 14:42 UTC

Location: N 41°18' W 073°09'.
View on Google Maps.

See reports from other nearby stations

  
Tides and Currents Weather Stations Pressure Air Temp Water Temp Dewpoint Dewpoint Depression Visibility Wind Speed Wind Dir Waves Ship Positions
date/time (UTC)wind fromknots sea level pressurealtimeterstation pressurevisibilityair tempwater tempwave heightnotes
2019-Sep-16 14:00 062 16.7
2019-Sep-16 13:45 108 16.7
2019-Sep-16 13:30 094 16.1
2019-Sep-16 13:15 094 16.1
2019-Sep-16 13:00 096 16.1
2019-Sep-16 12:45 096 16.1
2019-Sep-16 12:30 051 16.1
2019-Sep-16 12:15 051 16.1
2019-Sep-16 12:00 051 16.1
2019-Sep-16 11:45 051 16.1
2019-Sep-16 11:30 051 16.1
2019-Sep-16 11:15 051 16.1
2019-Sep-16 11:01 051 16.7
2019-Sep-16 10:47 051 16.7
2019-Sep-16 10:32 051 16.7
2019-Sep-16 10:16 051 16.7
2019-Sep-16 10:01 051 16.7
2019-Sep-16 09:46 051 16.7
2019-Sep-16 09:31 051 16.7
2019-Sep-16 09:16 051 16.7
2019-Sep-16 09:01 051 16.7
2019-Sep-16 08:46 051 16.7
2019-Sep-16 08:32 051 16.7
2019-Sep-16 08:16 031 16.7
2019-Sep-16 08:01 074 16.7
2019-Sep-16 07:46 074 16.7
2019-Sep-16 07:31 074 16.7
2019-Sep-16 07:16 074 17.2
2019-Sep-16 07:01 074 17.8
2019-Sep-16 06:46 074 17.8
2019-Sep-16 06:30 074 17.8
2019-Sep-16 06:16 074 17.8
2019-Sep-16 06:01 074 17.8
2019-Sep-16 05:45 074 17.8
2019-Sep-16 05:31 074 17.8
2019-Sep-16 05:15 074 17.8
2019-Sep-16 05:01 074 17.8
2019-Sep-16 04:46 074 17.8
2019-Sep-16 04:30 074 17.8
2019-Sep-16 04:15 074 17.8
2019-Sep-16 04:02 074 17.8
2019-Sep-16 03:45 074 17.8
2019-Sep-16 03:31 074 17.8
2019-Sep-16 03:15 074 17.8
2019-Sep-16 03:00 074 17.8
2019-Sep-16 02:45 074 17.8
2019-Sep-16 02:30 074 17.8
2019-Sep-16 02:15 074 17.8
2019-Sep-16 02:00 074 17.8
2019-Sep-16 01:46 074 17.8
2019-Sep-16 01:30 074 17.8
2019-Sep-16 01:15 074 18.3
2019-Sep-16 01:00 074 18.3
2019-Sep-16 00:45 074 18.3
2019-Sep-16 00:30 074 18.9
2019-Sep-16 00:15 074 19.4
2019-Sep-16 00:00 074 19.4
2019-Sep-15 23:46 074 20.0
2019-Sep-15 23:30 074 20.6
2019-Sep-15 23:15 074 21.1
2019-Sep-15 23:00 074 22.2
2019-Sep-15 22:45 074 22.8
2019-Sep-15 22:30 074 23.3
2019-Sep-15 22:15 074 23.3
2019-Sep-15 22:00 074 23.9
2019-Sep-15 21:45 074 23.9
2019-Sep-15 21:30 080 23.9
2019-Sep-15 21:15 190 24.4
2019-Sep-15 21:00 103 24.4
2019-Sep-15 20:45 235 24.4
2019-Sep-15 20:30 186 24.4
2019-Sep-15 20:15 204 24.4
2019-Sep-15 20:00 005 0 gusting 2 24.4
2019-Sep-15 19:45 239 0 gusting 3 24.4
2019-Sep-15 19:30 239 24.4
2019-Sep-15 19:15 258 24.4
2019-Sep-15 19:00 302 24.4
2019-Sep-15 18:45 130 24.4
2019-Sep-15 18:31 218 0 gusting 2 24.4
2019-Sep-15 18:16 161 0 gusting 4 24.4
2019-Sep-15 18:02 256 23.9
2019-Sep-15 17:47 174 0 gusting 1 23.9
2019-Sep-15 17:32 218 23.9
2019-Sep-15 17:16 306 23.3
2019-Sep-15 17:02 158 23.3
2019-Sep-15 16:48 067 23.3
2019-Sep-15 16:31 111 0 gusting 2 22.8
2019-Sep-15 16:16 275 22.8
2019-Sep-15 16:01 081 22.2
2019-Sep-15 15:46 013 21.7
2019-Sep-15 15:31 207 21.7
2019-Sep-15 15:16 194 21.1
2019-Sep-15 15:01 053 21.1
2019-Sep-15 14:45 059 20.6
2019-Sep-15 14:30 338 20.6
2019-Sep-15 14:15 069 20.0
2019-Sep-15 14:00 209 20.0
2019-Sep-15 13:45 157 19.4
2019-Sep-15 13:30 089 1 gusting 5 19.4
2019-Sep-15 13:15 074 19.4
2019-Sep-15 13:00 071 18.9
2019-Sep-15 12:45 050 1 gusting 4 18.9
2019-Sep-15 12:30 074 18.3
2019-Sep-15 12:15 024 18.3
2019-Sep-15 12:00 046 17.8
2019-Sep-15 11:47 046 17.2
2019-Sep-15 11:32 046 17.2
2019-Sep-15 11:17 046 16.7
2019-Sep-15 11:01 046 17.2
2019-Sep-15 10:46 046 17.2
2019-Sep-15 10:32 046 17.2
2019-Sep-15 10:16 046 17.2
2019-Sep-15 10:01 046 17.2
2019-Sep-15 09:46 046 17.2
2019-Sep-15 09:31 046 17.8
2019-Sep-15 09:17 046 17.2
2019-Sep-15 09:01 046 17.8
2019-Sep-15 08:47 046 17.8
2019-Sep-15 08:32 046 17.8
2019-Sep-15 08:16 046 17.8
2019-Sep-15 08:01 046 18.3
2019-Sep-15 07:46 046 18.3
2019-Sep-15 07:31 046 18.3
2019-Sep-15 07:16 046 18.3
2019-Sep-15 07:01 046 18.3
2019-Sep-15 06:46 046 18.9
2019-Sep-15 06:31 046 18.9
2019-Sep-15 06:16 046 18.9
2019-Sep-15 06:01 046 18.9
2019-Sep-15 05:46 046 18.9
2019-Sep-15 05:30 046 18.9
2019-Sep-15 05:15 046 18.9
2019-Sep-15 05:00 046 19.4
2019-Sep-15 04:45 046 19.4
2019-Sep-15 04:30 046 19.4
2019-Sep-15 04:15 046 19.4
2019-Sep-15 04:00 046 19.4
2019-Sep-15 03:45 046 19.4
2019-Sep-15 03:31 046 19.4
2019-Sep-15 03:16 046 19.4
2019-Sep-15 03:00 046 19.4
2019-Sep-15 02:45 046 19.4
2019-Sep-15 02:30 046 19.4
2019-Sep-15 02:15 046 19.4
2019-Sep-15 02:00 046 19.4
2019-Sep-15 01:45 046 20.0
2019-Sep-15 01:30 046 20.0
2019-Sep-15 01:15 046 20.0
2019-Sep-15 01:00 309 20.0
2019-Sep-15 00:45 103 20.0
2019-Sep-15 00:30 103 20.0
2019-Sep-15 00:15 135 20.0
2019-Sep-15 00:00 154 20.0
2019-Sep-14 23:45 005 20.0
2019-Sep-14 23:30 332 20.0
2019-Sep-14 23:15 113 20.0
2019-Sep-14 23:00 119 20.6
2019-Sep-14 22:45 130 20.6
2019-Sep-14 22:30 005 20.6
2019-Sep-14 22:15 317 20.6
2019-Sep-14 22:00 209 20.6
2019-Sep-14 21:45 174 20.6
2019-Sep-14 21:30 171 20.6
2019-Sep-14 21:17 326 20.6
2019-Sep-14 21:02 094 20.6
2019-Sep-14 20:47 181 0 gusting 3 21.1
2019-Sep-14 20:31 197 21.1
2019-Sep-14 20:16 293 20.6
2019-Sep-14 20:01 344 20.6
2019-Sep-14 19:46 187 20.6
2019-Sep-14 19:31 179 20.6
2019-Sep-14 19:16 180 20.6
2019-Sep-14 19:02 173 20.6
2019-Sep-14 18:46 144 20.6
2019-Sep-14 18:31 340 0 gusting 1 20.6
2019-Sep-14 18:16 313 20.0
2019-Sep-14 18:01 250 0 gusting 3 20.0
2019-Sep-14 17:46 232 0 gusting 5 20.0
2019-Sep-14 17:31 261 20.0
2019-Sep-14 17:16 306 20.0
2019-Sep-14 17:01 173 0 gusting 2 20.0
2019-Sep-14 16:45 213 20.0
2019-Sep-14 16:31 314 0 gusting 3 20.6
2019-Sep-14 16:15 140 0 gusting 6 20.6
2019-Sep-14 16:01 134 20.6
2019-Sep-14 15:45 178 0 gusting 3 20.6
2019-Sep-14 15:30 161 0 gusting 4 20.6
2019-Sep-14 15:15 201 21.1
2019-Sep-14 15:00 180 0 gusting 3 20.6
2019-Sep-14 14:45 026 0 gusting 3 19.4
2019-Sep-14 14:30 222 0 gusting 5 20.0
2019-Sep-14 14:15 211 0 gusting 4 20.6